Location: Unspecified
(0.0000°N, 0.0000°E)
Time: 08:36:17
(UTC+00:00)

Explorer 11/Cluster Stage 4 - Pass Details

Date: 15 July 2020
Orbit: 467 x 1259 km, 28.8° (Epoch: 03 August)

Event Time Altitude Azimuth Distance (km) Brightness Sun altitude
Rises 17:56:15 0° 298° (WNW) 4,092 13.1 2.3°
Reaches altitude 10° 17:59:04 10° 296° (WNW) 3,180 12.1 1.6°
Maximum altitude 18:07:16 78° 212° (SSW) 1,280 7.8 -0.3°
Drops below altitude 10° 18:15:18 10° 125° (SE) 3,118 9.0 -2.1°
Enters shadow 18:17:29 - 124° (SE) 3,826 9.4 -2.7°
Sets 18:18:02 0° 124° (SE) 4,010 - -2.8°
